Weather History for KVVV - January, 2013

Change the Weather History Date:

Thursday, January 3, 2013

  Actual Average (KAQP) Record (KAQP)
Temperature  
Mean Temperature 14 °F -  
Max Temperature 24 °F 20 °F 44 °F (2007)
Min Temperature 3 °F 5 °F -13 °F (2011)
Degree Days  
Heating Degree Days 52    
Moisture  
Dew Point 8 °F    
Average Humidity 76    
Maximum Humidity 85    
Minimum Humidity 68    
Precipitation  
Precipitation 0.00 in - - ()
Sea Level Pressure  
Sea Level Pressure 30.20 in    
Wind  
Wind Speed 9 mph (West)    
Max Wind Speed 15 mph    
Max Gust Speed 21 mph    
Visibility 9 miles    
Events Snow    
Averages and records for this station are not official NWS values.
T = Trace of Precipitation, MM = Missing Value Source: NWS Daily Summary

Daily Weather History Graph

Daily Weather History Graph

Search for Another Location

Airport or City:

Trip Planner

Search our weather history database for the weather conditions in past years. The results will help you decide how hot, cold, wet, or windy it might be!

Date:

Astronomy

Jan. 03, 2013 Rise Set
Actual Time 8:05 AM CST 4:55 PM CST
Civil Twilight 7:31 AM CST 5:29 PM CST
Nautical Twilight 6:54 AM CST 6:06 PM CST
Astronomical Twilight 6:18 AM CST 6:42 PM CST
Moon 11:53 PM CST (1/3) 10:58 AM CST (1/3)
Length of Visible Light 9h 58m
Length of Day
8h 50m
Waning Gibbous, 65% of the Moon is Illuminated
Jan 3
Waning Gibbous
Jan 4
Last Quarter
Jan 11
New
Jan 18
First Quarter
Jan 26
Full

Hourly Weather History & Observations

Time (CST) Temp. Windchill Dew Point Humidity Pressure Visibility Wind Dir Wind Speed Gust Speed Precip Events Conditions
12:13 AM 8.6 °F -8.3 °F 1.4 °F 73% 30.21 in 10.0 mi NW 15.0 mph 20.7 mph N/A   Clear
12:34 AM 6.8 °F -10.7 °F 1.4 °F 79% 30.21 in 10.0 mi NW 15.0 mph 18.4 mph N/A   Clear
12:54 AM 6.8 °F -10.7 °F 1.4 °F 79% 30.21 in 10.0 mi NW 15.0 mph 18.4 mph N/A   Clear
1:14 AM 6.8 °F -10.0 °F 1.4 °F 79% 30.22 in 10.0 mi NW 13.8 mph - N/A   Clear
2:14 AM 6.8 °F -10.0 °F -0.4 °F 72% 30.24 in 10.0 mi NW 13.8 mph - N/A   Clear
2:34 AM 5.0 °F -12.3 °F -0.4 °F 78% 30.24 in 10.0 mi NW 13.8 mph - N/A   Clear
2:54 AM 5.0 °F -11.6 °F -0.4 °F 78% 30.25 in 10.0 mi NW 12.7 mph - N/A   Scattered Clouds
3:13 AM 5.0 °F -10.0 °F -0.4 °F 78% 30.24 in 10.0 mi NW 10.4 mph - N/A   Scattered Clouds
3:34 AM 5.0 °F -10.8 °F -0.4 °F 78% 30.25 in 10.0 mi NW 11.5 mph - N/A   Clear
3:54 AM 5.0 °F -12.3 °F -0.4 °F 78% 30.25 in 10.0 mi NW 13.8 mph 18.4 mph N/A   Clear
4:13 AM 5.0 °F -12.3 °F -0.4 °F 78% 30.26 in 10.0 mi NW 13.8 mph - N/A   Clear
4:34 AM 5.0 °F -10.8 °F -0.4 °F 78% 30.27 in 10.0 mi NW 11.5 mph - N/A   Clear
4:54 AM 5.0 °F -10.8 °F -0.4 °F 78% 30.27 in 10.0 mi NW 11.5 mph 18.4 mph N/A   Clear
5:13 AM 5.0 °F -10.8 °F -0.4 °F 78% 30.27 in 10.0 mi NW 11.5 mph - N/A   Clear
5:34 AM 5.0 °F -10.8 °F -0.4 °F 78% 30.26 in 10.0 mi NW 11.5 mph - N/A   Clear
5:54 AM 5.0 °F -8.1 °F -0.4 °F 78% 30.27 in 10.0 mi NW 8.1 mph - N/A   Clear
6:14 AM 3.2 °F -10.3 °F -0.4 °F 85% 30.27 in 10.0 mi NNW 8.1 mph - N/A   Clear
6:34 AM 3.2 °F -9.1 °F -0.4 °F 85% 30.27 in 10.0 mi NW 6.9 mph - N/A   Clear
6:53 AM 3.2 °F -9.1 °F -0.4 °F 85% 30.28 in 10.0 mi NW 6.9 mph - N/A   Clear
7:14 AM 3.2 °F -9.1 °F -0.4 °F 85% 30.28 in 10.0 mi NW 6.9 mph - N/A   Scattered Clouds
7:34 AM 3.2 °F -9.1 °F -0.4 °F 85% 30.28 in 10.0 mi WNW 6.9 mph - N/A   Mostly Cloudy
7:54 AM 5.0 °F -6.9 °F -0.4 °F 78% 30.28 in 10.0 mi NW 6.9 mph - N/A Snow Light Snow
8:14 AM 6.8 °F -2.0 °F 1.4 °F 79% 30.27 in 7.0 mi WNW 4.6 mph - N/A Snow Light Snow
8:34 AM 6.8 °F -3.5 °F 1.4 °F 79% 30.28 in 7.0 mi WNW 5.8 mph - N/A Snow Light Snow
8:54 AM 6.8 °F - 1.4 °F 79% 30.29 in 5.0 mi Calm Calm - N/A Snow Light Snow
9:34 AM 10.4 °F 4.0 °F 5.0 °F 79% 30.28 in 3.0 mi WNW 3.5 mph - N/A Snow Light Snow
9:54 AM 12.2 °F 2.9 °F 6.8 °F 79% 30.29 in 3.0 mi WNW 5.8 mph - N/A Snow Light Snow
10:13 AM 12.2 °F 4.3 °F 6.8 °F 79% 30.29 in 3.0 mi West 4.6 mph - N/A Snow Light Snow
10:34 AM 14.0 °F - 8.6 °F 79% 30.29 in 4.0 mi Calm Calm - N/A Snow Light Snow
10:53 AM 15.8 °F - 8.6 °F 73% 30.28 in 7.0 mi Calm Calm - N/A Snow Light Snow
11:14 AM 15.8 °F 10.2 °F 8.6 °F 73% 30.27 in 5.0 mi WSW 3.5 mph - N/A Snow Light Snow
11:34 AM 15.8 °F 7.2 °F 8.6 °F 73% 30.26 in 10.0 mi SW 5.8 mph - N/A Snow Light Snow
11:54 AM 17.6 °F 9.3 °F 10.4 °F 73% 30.25 in 10.0 mi WSW 5.8 mph - N/A Snow Light Snow
12:14 PM 17.6 °F - 10.4 °F 73% 30.24 in 10.0 mi Calm Calm - N/A   Overcast
12:34 PM 19.4 °F 9.5 °F 10.4 °F 68% 30.22 in 10.0 mi WSW 8.1 mph - N/A   Mostly Cloudy
12:54 PM 19.4 °F 12.8 °F 12.2 °F 74% 30.20 in 10.0 mi WSW 4.6 mph - N/A   Scattered Clouds
1:14 PM 19.4 °F 14.3 °F 10.4 °F 68% 30.20 in 10.0 mi South 3.5 mph - N/A   Clear
1:33 PM 21.2 °F 14.9 °F 12.2 °F 68% 30.20 in 10.0 mi SW 4.6 mph - N/A   Clear
1:54 PM 21.2 °F 10.9 °F 14.0 °F 74% 30.20 in 10.0 mi West 9.2 mph - N/A   Clear
2:13 PM 21.2 °F 13.6 °F 14.0 °F 74% 30.19 in 10.0 mi WSW 5.8 mph - N/A   Clear
2:34 PM 21.2 °F 16.4 °F 14.0 °F 74% 30.19 in 10.0 mi WSW 3.5 mph - N/A   Clear
2:53 PM 21.2 °F 9.5 °F 14.0 °F 74% 30.19 in 10.0 mi WSW 11.5 mph - N/A   Clear
3:14 PM 21.2 °F 9.5 °F 14.0 °F 74% 30.19 in 10.0 mi WSW 11.5 mph - N/A   Clear
3:34 PM 21.2 °F 10.9 °F 12.2 °F 68% 30.19 in 10.0 mi WSW 9.2 mph - N/A   Clear
3:54 PM 21.2 °F 12.6 °F 12.2 °F 68% 30.18 in 10.0 mi WSW 6.9 mph - N/A   Clear
4:14 PM 19.4 °F 10.4 °F 12.2 °F 74% 30.18 in 10.0 mi WSW 6.9 mph - N/A   Clear
4:34 PM 19.4 °F 9.5 °F 12.2 °F 74% 30.18 in 10.0 mi WSW 8.1 mph - N/A   Clear
4:54 PM 19.4 °F 11.5 °F 12.2 °F 74% 30.17 in 10.0 mi WSW 5.8 mph - N/A   Clear
5:14 PM 17.6 °F - 12.2 °F 79% 30.17 in 10.0 mi Calm Calm - N/A   Clear
5:34 PM 17.6 °F - 12.2 °F 79% 30.16 in 10.0 mi Calm Calm - N/A   Clear
5:54 PM 17.6 °F - 12.2 °F 79% 30.15 in 10.0 mi Calm Calm - N/A   Clear
6:13 PM 17.6 °F - 12.2 °F 79% 30.14 in 10.0 mi Calm Calm - N/A   Clear
6:34 PM 17.6 °F 7.3 °F 12.2 °F 79% 30.13 in 10.0 mi SW 8.1 mph - N/A   Clear
6:53 PM 17.6 °F 10.7 °F 12.2 °F 79% 30.12 in 10.0 mi SW 4.6 mph - N/A   Clear
7:14 PM 17.6 °F - 12.2 °F 79% 30.11 in 10.0 mi Calm Calm - N/A   Clear
7:34 PM 19.4 °F - 12.2 °F 74% 30.11 in 10.0 mi Calm Calm - N/A   Clear
7:54 PM 19.4 °F - 12.2 °F 74% 30.10 in 10.0 mi Calm Calm - N/A   Clear
8:14 PM 19.4 °F 7.9 °F 14.0 °F 80% 30.09 in 10.0 mi West 10.4 mph - N/A   Clear
8:34 PM 19.4 °F 11.5 °F 14.0 °F 80% 30.08 in 10.0 mi West 5.8 mph - N/A   Clear
8:54 PM 19.4 °F 14.3 °F 14.0 °F 80% 30.07 in 10.0 mi WSW 3.5 mph - N/A   Clear
9:14 PM 21.2 °F 13.6 °F 14.0 °F 74% 30.07 in 10.0 mi West 5.8 mph - N/A   Clear
9:33 PM 21.2 °F 11.7 °F 14.0 °F 74% 30.06 in 10.0 mi West 8.1 mph - N/A   Clear
9:54 PM 21.2 °F 10.9 °F 15.8 °F 80% 30.06 in 10.0 mi West 9.2 mph - N/A   Clear
10:13 PM 23.0 °F 11.7 °F 15.8 °F 74% 30.05 in 10.0 mi West 11.5 mph - N/A   Clear
10:34 PM 24.8 °F 13.4 °F 15.8 °F 69% 30.04 in 10.0 mi WSW 12.7 mph 19.6 mph N/A   Clear
10:54 PM 24.8 °F 20.5 °F 15.8 °F 69% 30.03 in 10.0 mi WSW 3.5 mph - N/A   Clear
11:14 PM 23.0 °F 13.9 °F 15.8 °F 74% 30.02 in 10.0 mi West 8.1 mph - N/A   Clear
11:33 PM 24.8 °F 20.5 °F 15.8 °F 69% 30.02 in 10.0 mi West 3.5 mph - N/A   Clear